| time (UTC) | temp F | wind direction | speed knots | gust knots | rain 1hr in | rain 24hr in | rain mn in | humidity % | barometer mb |
| 20260902191521 | 74 | 225 | 11.3 | 18.2 | 0.00 | 0.00 | 0.00 | 41 | 1006.0 |
| 20260902190021 | 73 | 211 | 12.2 | 20.0 | 0.00 | 0.00 | 0.00 | 40 | 1006.2 |
| 20260902184501 | 73 | 240 | 13.0 | 20.0 | 0.00 | 0.00 | 0.00 | 42 | 1006.2 |
| 20260902183100 | 73 | 239 | 14.8 | 21.7 | 0.00 | 0.00 | 0.00 | 42 | 1006.4 |
| 20260902181541 | 72 | 208 | 13.9 | 19.1 | 0.00 | 0.00 | 0.00 | 42 | 1006.5 |
| 20260902180039 | 72 | 185 | 7.0 | 20.0 | 0.00 | 0.00 | 0.00 | 43 | 1006.6 |
| 20260902174520 | 72 | 252 | 15.6 | 20.0 | 0.00 | 0.00 | 0.00 | 44 | 1006.5 |
| 20260902173025 | 70 | 191 | 5.2 | 20.0 | 0.00 | 0.00 | 0.00 | 46 | 1006.7 |
| 20260902171600 | 69 | 193 | 10.4 | 17.4 | 0.00 | 0.00 | 0.00 | 49 | 1006.8 |
| 20260902170057 | 69 | 207 | 9.6 | 16.5 | 0.00 | 0.00 | 0.00 | 52 | 1006.9 |
| 20260902164536 | 68 | 200 | 10.4 | 14.8 | 0.00 | 0.00 | 0.00 | 52 | 1006.7 |
| 20260902163036 | 66 | 191 | 7.8 | 10.4 | 0.00 | 0.00 | 0.00 | 61 | 1007.0 |
| 20260902161512 | 62 | 207 | 1.7 | 5.2 | 0.00 | 0.00 | 0.00 | 66 | 1007.0 |
| 20260902160012 | 62 | 229 | 6.1 | 9.6 | 0.00 | 0.00 | 0.00 | 66 | 1007.1 |
| 20260902154559 | 60 | 193 | 2.6 | 7.0 | 0.00 | 0.00 | 0.00 | 68 | 1007.3 |
| 20260902153053 | 60 | 193 | 2.6 | 5.2 | 0.00 | 0.00 | 0.00 | 67 | 1007.3 |
| 20260902151539 | 61 | 246 | 3.5 | 6.1 | 0.00 | 0.00 | 0.00 | 66 | 1007.4 |
| 20260902150035 | 59 | 226 | 5.2 | 7.0 | 0.00 | 0.00 | 0.00 | 71 | 1007.5 |
| 20260902144515 | 58 | 269 | 1.7 | 5.2 | 0.00 | 0.00 | 0.00 | 71 | 1007.5 |
| 20260902143014 | 58 | 264 | 5.2 | 10.4 | 0.00 | 0.00 | 0.00 | 69 | 1007.1 |
| 20260902141551 | 59 | 273 | 7.8 | 12.2 | 0.00 | 0.00 | 0.00 | 65 | 1006.9 |
| 20260902140049 | 64 | 238 | 11.3 | 19.1 | 0.00 | 0.00 | 0.00 | 56 | 1006.7 |
| 20260902134535 | 62 | 285 | 13.0 | 19.1 | 0.00 | 0.00 | 0.00 | 58 | 1006.2 |
| 20260902133023 | 60 | 256 | 4.3 | 8.7 | 0.00 | 0.00 | 0.00 | 65 | 1006.4 |
| 20260902131503 | 61 | 333 | 4.3 | 7.8 | 0.00 | 0.00 | 0.00 | 61 | 1006.3 |
| 20260902130002 | 64 | 266 | 3.5 | 9.6 | 0.00 | 0.00 | 0.00 | 55 | 1006.5 |
| 20260902124551 | 62 | 278 | 10.4 | 28.7 | 0.00 | 0.00 | 0.00 | 59 | 1006.7 |
| 20260902123050 | 60 | 200 | 12.2 | 14.8 | 0.00 | 0.00 | 0.00 | 63 | 1006.6 |
| 20260902121548 | 60 | 193 | 8.7 | 13.9 | 0.00 | 0.00 | 0.00 | 63 | 1006.5 |
| 20260902120046 | 61 | 212 | 8.7 | 13.0 | 0.00 | 0.00 | 0.00 | 63 | 1006.3 |
| 20260902114546 | 61 | 202 | 10.4 | 14.8 | 0.00 | 0.00 | 0.00 | 62 | 1006.5 |
| 20260902113050 | 61 | 207 | 13.9 | 18.2 | 0.00 | 0.00 | 0.00 | 62 | 1006.2 |
| 20260902111540 | 62 | 197 | 10.4 | 13.0 | 0.00 | 0.00 | 0.00 | 60 | 1006.1 |
| 20260902110042 | 62 | 246 | 8.7 | 12.2 | 0.00 | 0.00 | 0.00 | 59 | 1005.8 |
| 20260902104541 | 63 | 218 | 5.2 | 7.8 | 0.00 | 0.00 | 0.00 | 57 | 1005.7 |
| 20260902103020 | 65 | 246 | 7.0 | 13.0 | 0.00 | 0.00 | 0.00 | 54 | 1005.4 |
| 20260902101502 | 66 | 282 | 8.7 | 13.9 | 0.00 | 0.00 | 0.00 | 52 | 1005.5 |
| 20260902100002 | 65 | 278 | 2.6 | 11.3 | 0.00 | 0.00 | 0.00 | 54 | 1005.7 |
| 20260902094544 | 63 | 269 | 7.8 | 13.9 | 0.00 | 0.00 | 0.00 | 58 | 1005.5 |
| 20260902093043 | 62 | 269 | 7.8 | 16.5 | 0.00 | 0.00 | 0.00 | 61 | 1005.5 |
| 20260902091524 | 62 | 269 | 13.0 | 17.4 | 0.00 | 0.00 | 0.00 | 62 | 1005.5 |
| 20260902090023 | 63 | 271 | 13.0 | 17.4 | 0.00 | 0.00 | 0.00 | 63 | 1005.5 |
| 20260902084503 | 64 | 260 | 10.4 | 12.2 | 0.00 | 0.00 | 0.00 | 61 | 1005.6 |
| 20260902083005 | 65 | 293 | 2.6 | 5.2 | 0.00 | 0.00 | 0.00 | 58 | 1005.4 |
| 20260902081607 | 66 | 355 | 0.0 | 2.6 | 0.00 | 0.00 | 0.00 | 57 | 1005.0 |
| 20260902080055 | 67 | 336 | 3.5 | 11.3 | 0.00 | 0.00 | 0.00 | 56 | 1005.0 |
| 20260902074527 | 69 | 333 | 2.6 | 8.7 | 0.00 | 0.00 | 0.00 | 52 | 1005.0 |
| 20260902073025 | 67 | 254 | 3.5 | 11.3 | 0.00 | 0.00 | 0.00 | 57 | 1005.0 |
| 20260902071507 | 68 | 193 | 10.4 | 16.5 | 0.00 | 0.00 | 0.00 | 55 | 1005.0 |
| 20260902070007 | 68 | 276 | 7.0 | 11.3 | 0.00 | 0.00 | 0.00 | 55 | 1005.0 |
| 20260902064550 | 68 | 215 | 14.8 | 22.6 | 0.00 | 0.00 | 0.00 | 54 | 1004.7 |
| 20260902063111 | 68 | 210 | 16.5 | 23.5 | 0.00 | 0.00 | 0.00 | 53 | 1004.5 |
| 20260902061531 | 69 | 271 | 14.8 | 21.7 | 0.00 | 0.00 | 0.00 | 51 | 1004.4 |
| 20260902060033 | 70 | 240 | 13.0 | 16.5 | 0.00 | 0.00 | 0.00 | 50 | 1004.1 |
| 20260902054512 | 71 | 259 | 11.3 | 13.9 | 0.00 | 0.00 | 0.00 | 48 | 1004.0 |
| 20260902053014 | 72 | 247 | 8.7 | 11.3 | 0.00 | 0.00 | 0.00 | 45 | 1004.1 |
| 20260902051603 | 75 | 212 | 4.3 | 9.6 | 0.00 | 0.00 | 0.00 | 42 | 1004.0 |
| 20260902050055 | 74 | 55 | 2.6 | 7.0 | 0.00 | 0.00 | 0.00 | 43 | 1003.7 |
| 20260902044545 | 74 | 288 | 3.5 | 8.7 | 0.00 | 0.00 | 0.00 | 42 | 1003.3 |
| 20260902043046 | 71 | 308 | 3.5 | 7.8 | 0.00 | 0.00 | 0.00 | 49 | 1003.3 |
| 20260902041542 | 72 | 276 | 5.2 | 7.8 | 0.00 | 0.00 | 0.00 | 49 | 1003.3 |
| 20260902040041 | 74 | 333 | 1.7 | 6.1 | 0.00 | 0.00 | 0.00 | 47 | 1003.1 |
| 20260902034540 | 75 | 68 | 1.7 | 2.6 | 0.00 | 0.00 | 0.00 | 47 | 1003.0 |
| 20260902033039 | 75 | 345 | 1.7 | 5.2 | 0.00 | 0.00 | 0.00 | 46 | 1002.7 |
| 20260902031542 | 76 | 332 | 0.9 | 1.7 | 0.00 | 0.00 | 0.00 | 46 | 1002.5 |
| 20260902030038 | 76 | 98 | 0.0 | 1.7 | 0.00 | 0.00 | 0.00 | 45 | 1002.3 |
| 20260902024538 | 76 | 305 | 0.0 | 0.9 | 0.00 | 0.00 | 0.00 | 45 | 1002.5 |
| 20260902023019 | 77 | 290 | 0.9 | 2.6 | 0.00 | 0.00 | 0.00 | 43 | 1002.4 |
| 20260902021530 | 78 | 150 | 0.9 | 7.0 | 0.00 | 0.00 | 0.00 | 42 | 1002.4 |
| 20260902020131 | 78 | 132 | 5.2 | 7.0 | 0.00 | 0.00 | 0.00 | 42 | 1002.2 |
| 20260902014603 | 79 | 110 | 7.0 | 10.4 | 0.00 | 0.00 | 0.00 | 41 | 1002.3 |
| 20260902013040 | 80 | 96 | 7.0 | 11.3 | 0.00 | 0.00 | 0.00 | 40 | 1002.4 |
| 20260902011542 | 80 | 120 | 7.8 | 10.4 | 0.00 | 0.00 | 0.00 | 39 | 1002.4 |
| 20260902010027 | 82 | 142 | 5.2 | 9.6 | 0.00 | 0.00 | 0.00 | 39 | 1002.3 |
| 20260902004524 | 82 | 110 | 7.8 | 10.4 | 0.00 | 0.00 | 0.00 | 38 | 1002.4 |
| 20260902003005 | 83 | 114 | 7.0 | 9.6 | 0.00 | 0.00 | 0.00 | 36 | 1002.4 |
| 20260902001502 | 84 | 151 | 7.0 | 10.4 | 0.00 | 0.00 | 0.00 | 32 | 1002.4 |
| 20260902000046 | 84 | 145 | 7.0 | 8.7 | 0.00 | 0.00 | 0.00 | 33 | 1002.4 |
| 20260901234601 | 85 | 175 | 5.2 | 7.8 | 0.00 | 0.00 | 0.00 | 32 | 1002.6 |
| 20260901233024 | 85 | 143 | 4.3 | 8.7 | 0.00 | 0.00 | 0.00 | 30 | 1002.7 |
| 20260901231521 | 84 | 132 | 1.7 | 9.6 | 0.00 | 0.00 | 0.00 | 31 | 1002.6 |
| 20260901230008 | 84 | 191 | 5.2 | 12.2 | 0.00 | 0.00 | 0.00 | 31 | 1002.9 |
| 20260901224600 | 84 | 195 | 11.3 | 15.6 | 0.00 | 0.00 | 0.00 | 32 | 1002.9 |
| 20260901223041 | 83 | 221 | 13.9 | 16.5 | 0.00 | 0.00 | 0.00 | 33 | 1003.0 |
| 20260901221602 | 82 | 215 | 11.3 | 15.6 | 0.00 | 0.00 | 0.00 | 35 | 1003.3 |
| 20260901220017 | 82 | 194 | 7.8 | 12.2 | 0.00 | 0.00 | 0.00 | 34 | 1003.4 |
| 20260901214518 | 81 | 181 | 6.1 | 11.3 | 0.00 | 0.00 | 0.00 | 35 | 1003.5 |
| 20260901213003 | 82 | 221 | 7.8 | 13.9 | 0.00 | 0.00 | 0.00 | 33 | 1003.8 |
| 20260901211601 | 81 | 197 | 7.0 | 12.2 | 0.00 | 0.00 | 0.00 | 35 | 1003.9 |
| 20260901210056 | 80 | 198 | 6.1 | 12.2 | 0.00 | 0.00 | 0.00 | 35 | 1004.3 |
| 20260901204557 | 80 | 202 | 6.1 | 11.3 | 0.00 | 0.00 | 0.00 | 34 | 1004.5 |
| 20260901203101 | 79 | 204 | 2.6 | 8.7 | 0.00 | 0.00 | 0.00 | 37 | 1004.7 |
| 20260901201550 | 79 | 201 | 7.8 | 12.2 | 0.00 | 0.00 | 0.00 | 37 | 1005.0 |
| 20260901200044 | 77 | 204 | 6.1 | 10.4 | 0.00 | 0.00 | 0.00 | 40 | 1005.0 |
| 20260901194543 | 76 | 207 | 7.0 | 10.4 | 0.00 | 0.00 | 0.00 | 39 | 1005.2 |
| 20260901193024 | 76 | 155 | 2.6 | 6.1 | 0.00 | 0.00 | 0.00 | 41 | 1005.2 |